Regional Weather Roundup
Issued by NWS

Home | Current Version | Previous Version | Graphics & Text | Print | Product List | Glossary On
Versions: 1 2 3 4 5 6 7 8 9 10 11 12 13 14 15 16 17 18 19 20 21 22 23 24 25 26 27 28 29 30 31 32 33 34 35 36 37 38 39 40 41 42 43 44 45 46 47 48 49 50
371
ASUS44 KLIX 010110
RWRLA
LOUISIANA WEATHER ROUNDUP
NATIONAL WEATHER SERVICE NEW ORLEANS LA
800 PM CDT TUE SEP 30 2014

NOTE: "FAIR" INDICATES FEW OR NO CLOUDS BELOW 12,000 FEET WITH NO
      SIGNIFICANT WEATHER AND/OR OBSTRUCTIONS TO VISIBILITY.
      SKY/WX - SKY CONDITION AND SIGNIFICANT WEATHER.
      TMP - AIR TEMPERATURE.    DP   - DEWPOINT TEMPERATURE.
      RH  - RELATIVE HUMIDITY.  PRES - PRESSURE.
      HX  - HEAT INDEX.         WCI  - WIND CHILL INDEX.

*  THESE STATIONS ARE NOT NWS OR FAA STATIONS AND ARE NOT UNDER
   NWS QUALITY CONTROL.

LAZ040-048-061>063-065-066-069-010200-
SOUTHEAST LOUISIANA

CITY           SKY/WX    TMP DP  RH WIND       PRES   REMARKS
N.O. AUDUBON     N/A     79  75  86 MISG        N/A
N.O. INTL ARPT PTCLDY    79  72  79 SE8       29.86R
N.O. LAKEFRONT CLEAR     79  71  76 SE10      29.86R
N.O. DOWNTOWN* FAIR      79  70  73 SE8       29.87R
SLIDELL        CLEAR     77  72  84 SE3       29.86R
BATON ROUGE    CLEAR     79  68  69 SE5       29.84R
BOOTHVILLE     CLEAR     79  74  84 E7        29.87R
BELLE CHASSE   PTCLDY    78  72  81 E8        29.86R
BOGALUSA*        N/A     78  70  77 CALM      29.88R
GALLIANO*      NOT AVBL
NEW ROADS*     FAIR      79  72  79 CALM      29.84R
GONZALES*      FAIR      80  75  83 SE3       29.84R
HAMMOND*       CLEAR     77  70  78 E5        29.87S
HOUMA*         PTCLDY   N/A N/A N/A E6        29.85R
PORT FOURCHON* PTCLDY    81  73  78 E8        29.88S

$$

LAZ041-044-053-054-010200-
SOUTHWEST LOUISIANA

CITY           SKY/WX    TMP DP  RH WIND       PRES   REMARKS
LAKE CHARLES   CLEAR     78  73  84 S3        29.82R
LAFAYETTE      CLEAR     81  71  71 S6        29.83R
PATTERSON      PTCLDY    79  73  83 S3          N/A
SALT POINT       N/A     82  75  79 CALM      29.83R
NEW IBERIA     CLEAR     79  71  76 S3        29.84R
CHENAULT AIRPK CLEAR     81  73  78 S5        29.83

$$

LAZ027-028-010200-
CENTRAL LOUISIANA

CITY           SKY/WX    TMP DP  RH WIND       PRES   REMARKS
FORT POLK      CLEAR     78  73  85 E2        29.81S
ALEXANDRIA INT CLEAR     81  69  67 CALM      29.81R
ALEXANDRIA     PTCLDY    77  72  84 CALM      29.83R

$$

LAZ001-002-010200-
NORTHWEST LOUISIANA

CITY           SKY/WX    TMP DP  RH WIND       PRES   REMARKS
SHREVEPORT     PTCLDY    82  67  60 SE5       29.80R
BARKSDALE AFB  PTCLDY    78  67  69 E6        29.81R
DTN SHREVEPORT PTCLDY    81  65  58 SE6       29.80R

$$

LAZ014-016-010200-
NORTHEAST LOUISIANA

CITY           SKY/WX    TMP DP  RH WIND       PRES   REMARKS
MONROE         CLEAR     75  69  81 CALM      29.83S
TALLULAH       CLEAR     74  66  76 CALM      29.84R

$$




USA.gov is the U.S. government's official web portal to all federal, state and local government web resources and services.